Zurück zum Katalog

STARLINK-32792

AktivKommunikationVLEO
NORAD 62504·PAYLOAD·🇺🇸 United States

Gestartet Jan 6, 2025 von Cape Canaveral Space Force Station

Loading…

Nächste Überflüge (nächste 24 Stunden)

TLE

AktuellSource: CelesTrak SupGP

Epoche: Sep 14, 2026, 20:57 UTC

1 62504C 25003T   26257.87340278 -.00021888  00000+0 -79277-3 0  2578
2 62504  43.0021 300.1305 0001568 270.2202 307.1537 15.27589964    19

Verfolge STARLINK-32792 in Echtzeit mit AllMySat

Download on the App Store